When you browse on this site, cookies collect data to enhance your experience and personalize the content and advertising you see.
Visit our Privacy Policy to learn more. By continuing to use the site, you agree to this use of cookies and data.

Meteo pe oră la Toruń

Astăzi, 22 Septembrie, Marţi

Timp Temperatura Precipitaţii Vânt Presiune Umiditate
00:00 +15°C° 0 mm 2 m/s 756 mmHg 65%
01:00 +15°C° 0 mm 2 m/s 756 mmHg 66%
02:00 +14°C° 0 mm 2 m/s 756 mmHg 68%
03:00 +14°C° 0 mm 2 m/s 755 mmHg 69%
04:00 +14°C° 0 mm 2 m/s 755 mmHg 70%
05:00 +15°C° 0 mm 2 m/s 755 mmHg 70%
06:00 +15°C° 0 mm 2 m/s 755 mmHg 69%
07:00 +16°C° 0 mm 3 m/s 755 mmHg 66%
08:00 +18°C° 0 mm 3 m/s 755 mmHg 59%
09:00 +20°C° 0 mm 3 m/s 755 mmHg 52%
10:00 +22°C° 0 mm 3 m/s 754 mmHg 46%
11:00 +25°C° 0 mm 4 m/s 754 mmHg 42%
12:00 +26°C° 0 mm 4 m/s 754 mmHg 39%
13:00 +27°C° 0 mm 5 m/s 754 mmHg 36%
14:00 +27°C° 0 mm 5 m/s 753 mmHg 37%
15:00 +27°C° 0 mm 4 m/s 753 mmHg 39%
16:00 +26°C° 0 mm 4 m/s 752 mmHg 40%
17:00 +25°C° 0 mm 4 m/s 752 mmHg 45%
18:00 +22°C° 0 mm 4 m/s 752 mmHg 49%
19:00 +20°C° 0 mm 3 m/s 752 mmHg 54%
20:00 +19°C° 0 mm 3 m/s 752 mmHg 56%
21:00 +19°C° 0 mm 3 m/s 751 mmHg 57%
22:00 +18°C° 0 mm 3 m/s 751 mmHg 59%
23:00 +18°C° 0 mm 3 m/s 751 mmHg 61%

Mâine, 23 Septembrie, Miercuri

Timp Temperatura Precipitaţii Vânt Presiune Umiditate
00:00 +17°C° 0 mm 3 m/s 751 mmHg 63%
01:00 +17°C° 0 mm 3 m/s 751 mmHg 65%
02:00 +17°C° 0 mm 3 m/s 751 mmHg 65%
03:00 +16°C° 0 mm 3 m/s 750 mmHg 66%
04:00 +16°C° 0 mm 3 m/s 750 mmHg 67%
05:00 +16°C° 0 mm 3 m/s 750 mmHg 65%
06:00 +17°C° 0 mm 3 m/s 750 mmHg 64%
07:00 +17°C° 0 mm 3 m/s 750 mmHg 62%
08:00 +19°C° 0 mm 3 m/s 750 mmHg 56%
09:00 +21°C° 0 mm 4 m/s 749 mmHg 51%
10:00 +25°C° 0 mm 4 m/s 749 mmHg 45%
11:00 +26°C° 0 mm 4 m/s 749 mmHg 43%
12:00 +27°C° 0 mm 4 m/s 749 mmHg 40%
13:00 +28°C° 0 mm 4 m/s 749 mmHg 38%
14:00 +27°C° 0 mm 4 m/s 749 mmHg 41%
15:00 +27°C° 0 mm 3 m/s 748 mmHg 44%
16:00 +26°C° 0 mm 3 m/s 748 mmHg 47%
17:00 +25°C° 0 mm 3 m/s 748 mmHg 53%
18:00 +22°C° 0 mm 3 m/s 748 mmHg 59%
19:00 +20°C° 0 mm 3 m/s 748 mmHg 65%
20:00 +20°C° 0 mm 3 m/s 748 mmHg 68%
21:00 +19°C° 0 mm 3 m/s 748 mmHg 70%
22:00 +18°C° 0 mm 2 m/s 748 mmHg 73%
23:00 +18°C° 0 mm 2 m/s 748 mmHg 75%

Poimâine, 24 Septembrie, Joi

Timp Temperatura Precipitaţii Vânt Presiune Umiditate
00:00 +18°C° 0 mm 2 m/s 748 mmHg 77%
01:00 +17°C° 0 mm 2 m/s 748 mmHg 79%
02:00 +17°C° 0 mm 2 m/s 748 mmHg 81%
03:00 +17°C° 0 mm 2 m/s 748 mmHg 83%
04:00 +16°C° 0 mm 2 m/s 748 mmHg 86%
05:00 +17°C° 0 mm 2 m/s 748 mmHg 85%
06:00 +17°C° 0 mm 2 m/s 748 mmHg 84%
07:00 +17°C° 0 mm 2 m/s 748 mmHg 83%
08:00 +19°C° 0 mm 3 m/s 748 mmHg 74%
09:00 +21°C° 0 mm 3 m/s 749 mmHg 66%
10:00 +24°C° 0 mm 3 m/s 749 mmHg 58%
11:00 +25°C° 0 mm 3 m/s 749 mmHg 53%
12:00 +26°C° 0 mm 3 m/s 748 mmHg 49%
13:00 +27°C° 0 mm 4 m/s 748 mmHg 45%
14:00 +26°C° 0 mm 3 m/s 748 mmHg 46%
15:00 +26°C° 0 mm 3 m/s 748 mmHg 47%
16:00 +25°C° 0 mm 2 m/s 748 mmHg 49%
17:00 +24°C° 0 mm 2 m/s 748 mmHg 53%
18:00 +21°C° 0 mm 2 m/s 748 mmHg 58%
19:00 +20°C° 0 mm 2 m/s 748 mmHg 62%
20:00 +19°C° 0 mm 2 m/s 748 mmHg 64%
21:00 +19°C° 0 mm 2 m/s 748 mmHg 66%
22:00 +18°C° 0 mm 2 m/s 748 mmHg 68%
23:00 +18°C° 0 mm 2 m/s 748 mmHg 70%

25 Septembrie, Vineri

Timp Temperatura Precipitaţii Vânt Presiune Umiditate
00:00 +17°C° 0 mm 2 m/s 748 mmHg 72%
01:00 +17°C° 0 mm 2 m/s 747 mmHg 74%
02:00 +17°C° 0 mm 2 m/s 747 mmHg 76%
03:00 +16°C° 0 mm 2 m/s 747 mmHg 77%
04:00 +16°C° 0 mm 2 m/s 746 mmHg 79%
05:00 +16°C° 0 mm 3 m/s 746 mmHg 77%
06:00 +17°C° 0 mm 3 m/s 745 mmHg 76%
07:00 +17°C° 0 mm 4 m/s 744 mmHg 74%
08:00 +19°C° 0 mm 5 m/s 744 mmHg 68%
09:00 +21°C° 0 mm 6 m/s 743 mmHg 61%
10:00 +23°C° 0 mm 7 m/s 743 mmHg 55%
11:00 +24°C° 0 mm 7 m/s 742 mmHg 53%
12:00 +26°C° 0 mm 7 m/s 741 mmHg 50%
13:00 +27°C° 0 mm 7 m/s 740 mmHg 48%
14:00 +26°C° 0.2 mm 7 m/s 740 mmHg 52%
15:00 +24°C° 0.2 mm 7 m/s 740 mmHg 56%
16:00 +23°C° 0.2 mm 7 m/s 739 mmHg 60%
17:00 +21°C° 0.7 mm 7 m/s 739 mmHg 67%
18:00 +20°C° 0.7 mm 7 m/s 739 mmHg 75%
19:00 +18°C° 0.7 mm 7 m/s 740 mmHg 82%
20:00 +16°C° 0.1 mm 6 m/s 740 mmHg 83%
21:00 +15°C° 0.1 mm 6 m/s 740 mmHg 84%
22:00 +14°C° 0.1 mm 5 m/s 741 mmHg 86%
23:00 +14°C° 0 mm 4 m/s 741 mmHg 87%

26 Septembrie, Sâmbătă

Timp Temperatura Precipitaţii Vânt Presiune Umiditate
00:00 +14°C° 0 mm 2 m/s 741 mmHg 89%
01:00 +14°C° 0 mm 1 m/s 741 mmHg 90%
02:00 +14°C° 0 mm 1 m/s 741 mmHg 91%
03:00 +13°C° 0 mm 1 m/s 741 mmHg 92%
04:00 +13°C° 0 mm 2 m/s 741 mmHg 94%
05:00 +13°C° 1.4 mm 3 m/s 741 mmHg 93%
06:00 +13°C° 1.4 mm 4 m/s 740 mmHg 93%
07:00 +13°C° 1.4 mm 5 m/s 740 mmHg 93%
08:00 +14°C° 1.7 mm 5 m/s 739 mmHg 92%
09:00 +15°C° 1.7 mm 5 m/s 739 mmHg 92%
10:00 +15°C° 1.7 mm 5 m/s 739 mmHg 92%
11:00 +16°C° 0.2 mm 5 m/s 739 mmHg 88%
12:00 +17°C° 0.2 mm 5 m/s 739 mmHg 84%
13:00 +19°C° 0.2 mm 4 m/s 739 mmHg 80%
14:00 +19°C° 0.1 mm 4 m/s 739 mmHg 82%
15:00 +18°C° 0.1 mm 4 m/s 739 mmHg 85%
16:00 +18°C° 0.1 mm 4 m/s 739 mmHg 88%
17:00 +17°C° 0.1 mm 3 m/s 740 mmHg 89%
18:00 +17°C° 0.1 mm 3 m/s 740 mmHg 91%
19:00 +16°C° 0.1 mm 2 m/s 740 mmHg 92%
20:00 +16°C° 0 mm 1 m/s 740 mmHg 92%
21:00 +16°C° 0 mm 1 m/s 740 mmHg 92%
22:00 +16°C° 0 mm 1 m/s 741 mmHg 92%
23:00 +16°C° 0.2 mm 2 m/s 740 mmHg 92%

27 Septembrie, Duminică

Timp Temperatura Precipitaţii Vânt Presiune Umiditate
00:00 +16°C° 0.2 mm 3 m/s 740 mmHg 93%
01:00 +15°C° 0.2 mm 4 m/s 739 mmHg 93%
02:00 +16°C° 0.2 mm 5 m/s 739 mmHg 88%
03:00 +16°C° 0.2 mm 5 m/s 738 mmHg 83%
04:00 +17°C° 0.2 mm 6 m/s 738 mmHg 78%
05:00 +17°C° 0.2 mm 7 m/s 738 mmHg 81%
06:00 +17°C° 0.2 mm 7 m/s 738 mmHg 83%
07:00 +16°C° 0.2 mm 7 m/s 738 mmHg 86%
08:00 +17°C° 0.1 mm 8 m/s 738 mmHg 83%
09:00 +17°C° 0.1 mm 8 m/s 738 mmHg 80%
10:00 +18°C° 0.1 mm 8 m/s 739 mmHg 78%
11:00 +18°C° 0 mm 8 m/s 739 mmHg 76%
12:00 +18°C° 0 mm 8 m/s 739 mmHg 74%
13:00 +18°C° 0 mm 8 m/s 740 mmHg 73%
14:00 +18°C° 0 mm 8 m/s 740 mmHg 75%
15:00 +17°C° 0 mm 8 m/s 740 mmHg 77%
16:00 +17°C° 0 mm 7 m/s 741 mmHg 80%
17:00 +16°C° 0.2 mm 6 m/s 741 mmHg 81%
18:00 +16°C° 0.2 mm 6 m/s 741 mmHg 81%
19:00 +15°C° 0.2 mm 5 m/s 742 mmHg 82%
20:00 +15°C° 0 mm 4 m/s 742 mmHg 84%
21:00 +14°C° 0 mm 4 m/s 742 mmHg 85%
22:00 +14°C° 0 mm 3 m/s 743 mmHg 86%
23:00 +13°C° 0 mm 3 m/s 743 mmHg 87%
Arată mai mult